| time (UTC) | temp F | wind direction | speed MPH | gust MPH | rain 1hr in | rain 24hr in | rain mn in | humidity % | barometer mb |
| 20260507035118 | 59 | 36 | 0.0 | 0.0 | 0.00 | 0.00 | 0.00 | 64 | 1017.0 |
| 20260507034519 | 60 | 35 | 0.0 | 0.0 | 0.00 | 0.00 | 0.00 | 63 | 1017.0 |
| 20260507034021 | 60 | 35 | 0.0 | 0.0 | 0.00 | 0.00 | 0.00 | 62 | 1016.9 |
| 20260507033522 | 61 | 32 | 0.0 | 0.0 | 0.00 | 0.00 | 0.00 | 60 | 1016.9 |
| 20260507033020 | 62 | 31 | 0.0 | 0.0 | 0.00 | 0.00 | 0.00 | 60 | 1016.8 |
| 20260507032619 | 62 | 31 | 0.0 | 0.0 | 0.00 | 0.00 | 0.00 | 59 | 1016.7 |
| 20260507032018 | 62 | 31 | 0.0 | 0.0 | 0.00 | 0.00 | 0.00 | 58 | 1016.7 |
| 20260507031518 | 63 | 31 | 0.0 | 0.0 | 0.00 | 0.00 | 0.00 | 58 | 1016.7 |
| 20260507031018 | 63 | 31 | 0.0 | 0.0 | 0.00 | 0.00 | 0.00 | 57 | 1016.6 |
| 20260507030519 | 64 | 31 | 0.0 | 0.0 | 0.00 | 0.00 | 0.00 | 56 | 1016.4 |
| 20260507030027 | 64 | 31 | 0.0 | 0.0 | 0.00 | 0.00 | 0.00 | 55 | 1016.5 |
| 20260507025618 | 65 | 31 | 0.0 | 0.0 | 0.00 | 0.00 | 0.00 | 54 | 1016.4 |
| 20260507025019 | 65 | 31 | 0.0 | 0.0 | 0.00 | 0.00 | 0.00 | 53 | 1016.3 |
| 20260507024524 | 66 | 31 | 0.0 | 2.0 | 0.00 | 0.00 | 0.00 | 52 | 1016.3 |
| 20260507024018 | 66 | 34 | 0.0 | 4.0 | 0.00 | 0.00 | 0.00 | 52 | 1016.3 |
| 20260507023518 | 66 | 31 | 0.0 | 4.0 | 0.00 | 0.00 | 0.00 | 51 | 1016.2 |
| 20260507023018 | 66 | 337 | 1.0 | 9.0 | 0.00 | 0.00 | 0.00 | 50 | 1016.2 |
| 20260507022518 | 67 | 43 | 0.0 | 7.0 | 0.00 | 0.00 | 0.00 | 50 | 1016.2 |
| 20260507022019 | 67 | 347 | 1.0 | 7.0 | 0.00 | 0.00 | 0.00 | 49 | 1016.1 |
| 20260507021518 | 67 | 12 | 1.0 | 7.0 | 0.00 | 0.00 | 0.00 | 49 | 1016.1 |
| 20260507021018 | 68 | 34 | 1.0 | 6.0 | 0.00 | 0.00 | 0.00 | 48 | 1016.1 |
| 20260507020520 | 68 | 44 | 1.0 | 9.0 | 0.00 | 0.00 | 0.00 | 48 | 1016.0 |
| 20260507020019 | 68 | 16 | 2.0 | 9.0 | 0.00 | 0.00 | 0.00 | 47 | 1016.1 |
| 20260507015521 | 68 | 50 | 4.0 | 8.0 | 0.00 | 0.00 | 0.00 | 46 | 1015.9 |
| 20260507015018 | 69 | 48 | 0.0 | 8.0 | 0.00 | 0.00 | 0.00 | 46 | 1016.0 |
| 20260507014519 | 69 | 342 | 0.0 | 8.0 | 0.00 | 0.00 | 0.00 | 47 | 1016.0 |
| 20260507014019 | 69 | 44 | 1.0 | 9.0 | 0.00 | 0.00 | 0.00 | 46 | 1016.1 |
| 20260507013518 | 69 | 335 | 1.0 | 10.0 | 0.00 | 0.00 | 0.00 | 45 | 1016.1 |
| 20260507013018 | 70 | 10 | 2.0 | 10.0 | 0.00 | 0.00 | 0.00 | 45 | 1016.0 |
| 20260507012518 | 70 | 20 | 1.0 | 9.0 | 0.00 | 0.00 | 0.00 | 44 | 1016.0 |
| 20260507012019 | 70 | 26 | 4.0 | 9.0 | 0.00 | 0.00 | 0.00 | 44 | 1015.9 |
| 20260507011517 | 70 | 348 | 2.0 | 8.0 | 0.00 | 0.00 | 0.00 | 43 | 1015.9 |
| 20260507011018 | 70 | 359 | 4.0 | 10.0 | 0.00 | 0.00 | 0.00 | 43 | 1015.9 |
| 20260507010023 | 71 | 40 | 2.0 | 10.0 | 0.00 | 0.00 | 0.00 | 42 | 1016.0 |
| 20260507005517 | 71 | 44 | 4.0 | 12.0 | 0.00 | 0.00 | 0.00 | 43 | 1015.9 |
| 20260507005017 | 72 | 38 | 4.0 | 12.0 | 0.00 | 0.00 | 0.00 | 41 | 1015.9 |
| 20260507004519 | 72 | 336 | 2.0 | 8.0 | 0.00 | 0.00 | 0.00 | 42 | 1015.8 |
| 20260507004018 | 72 | 29 | 1.0 | 12.0 | 0.00 | 0.00 | 0.00 | 42 | 1015.8 |
| 20260507003519 | 72 | 28 | 4.0 | 12.0 | 0.00 | 0.00 | 0.00 | 42 | 1015.7 |
| 20260507003021 | 73 | 62 | 0.0 | 8.0 | 0.00 | 0.00 | 0.00 | 41 | 1015.7 |
| 20260507002518 | 73 | 103 | 3.0 | 11.0 | 0.00 | 0.00 | 0.00 | 40 | 1015.8 |
| 20260507002023 | 73 | 348 | 1.0 | 11.0 | 0.00 | 0.00 | 0.00 | 40 | 1015.7 |
| 20260507001518 | 73 | 359 | 2.0 | 9.0 | 0.00 | 0.00 | 0.00 | 40 | 1015.8 |
| 20260507001018 | 73 | 68 | 0.0 | 11.0 | 0.00 | 0.00 | 0.00 | 41 | 1015.7 |
| 20260507000518 | 73 | 51 | 3.0 | 11.0 | 0.00 | 0.00 | 0.00 | 41 | 1015.6 |
| 20260507000018 | 73 | 48 | 5.0 | 10.0 | 0.00 | 0.00 | 0.00 | 40 | 1015.6 |
| 20260506235518 | 74 | 47 | 3.0 | 9.0 | 0.00 | 0.00 | 0.00 | 39 | 1015.6 |
| 20260506235018 | 73 | 332 | 1.0 | 11.0 | 0.00 | 0.00 | 0.00 | 40 | 1015.6 |
| 20260506234520 | 73 | 39 | 8.0 | 12.0 | 0.00 | 0.00 | 0.00 | 39 | 1015.6 |
| 20260506234119 | 74 | 52 | 1.0 | 11.0 | 0.00 | 0.00 | 0.00 | 39 | 1015.6 |
| 20260506233517 | 74 | 343 | 3.0 | 11.0 | 0.00 | 0.00 | 0.00 | 39 | 1015.6 |
| 20260506233022 | 74 | 52 | 5.0 | 11.0 | 0.00 | 0.00 | 0.00 | 39 | 1015.6 |
| 20260506232518 | 74 | 359 | 3.0 | 10.0 | 0.00 | 0.00 | 0.00 | 39 | 1015.6 |
| 20260506232018 | 74 | 43 | 2.0 | 10.0 | 0.00 | 0.00 | 0.00 | 39 | 1015.7 |
| 20260506231518 | 74 | 324 | 2.0 | 10.0 | 0.00 | 0.00 | 0.00 | 38 | 1015.7 |
| 20260506231020 | 74 | 72 | 1.0 | 8.0 | 0.00 | 0.00 | 0.00 | 38 | 1015.8 |
| 20260506230518 | 74 | 38 | 2.0 | 8.0 | 0.00 | 0.00 | 0.00 | 37 | 1015.9 |
| 20260506230025 | 74 | 359 | 3.0 | 8.0 | 0.00 | 0.00 | 0.00 | 39 | 1016.0 |
| 20260506225518 | 74 | 324 | 2.0 | 8.0 | 0.00 | 0.00 | 0.00 | 39 | 1015.9 |
| 20260506225019 | 73 | 33 | 1.0 | 8.0 | 0.00 | 0.00 | 0.00 | 39 | 1016.1 |
| 20260506224620 | 73 | 44 | 0.0 | 8.0 | 0.00 | 0.00 | 0.00 | 39 | 1016.3 |
| 20260506224018 | 74 | 176 | 0.0 | 10.0 | 0.00 | 0.00 | 0.00 | 40 | 1016.3 |
| 20260506223518 | 73 | 35 | 5.0 | 10.0 | 0.00 | 0.00 | 0.00 | 39 | 1016.3 |
| 20260506223018 | 74 | 359 | 2.0 | 10.0 | 0.00 | 0.00 | 0.00 | 39 | 1016.3 |
| 20260506222518 | 74 | 58 | 2.0 | 7.0 | 0.00 | 0.00 | 0.00 | 39 | 1016.4 |
| 20260506222023 | 74 | 316 | 2.0 | 6.0 | 0.00 | 0.00 | 0.00 | 39 | 1016.5 |
| 20260506221519 | 73 | 359 | 0.0 | 10.0 | 0.00 | 0.00 | 0.00 | 39 | 1016.6 |
| 20260506221119 | 73 | 359 | 1.0 | 10.0 | 0.00 | 0.00 | 0.00 | 40 | 1016.7 |
| 20260506220518 | 73 | 309 | 1.0 | 7.0 | 0.00 | 0.00 | 0.00 | 40 | 1016.8 |
| 20260506220026 | 73 | 27 | 0.0 | 8.0 | 0.00 | 0.00 | 0.00 | 40 | 1016.9 |
| 20260506215522 | 73 | 54 | 2.0 | 8.0 | 0.00 | 0.00 | 0.00 | 40 | 1017.0 |
| 20260506215019 | 73 | 328 | 0.0 | 6.0 | 0.00 | 0.00 | 0.00 | 40 | 1017.0 |
| 20260506214518 | 72 | 23 | 1.0 | 8.0 | 0.00 | 0.00 | 0.00 | 41 | 1017.1 |
| 20260506214018 | 71 | 40 | 2.0 | 9.0 | 0.00 | 0.00 | 0.00 | 41 | 1017.1 |
| 20260506213518 | 72 | 323 | 5.0 | 10.0 | 0.00 | 0.00 | 0.00 | 40 | 1017.1 |
| 20260506213018 | 72 | 310 | 2.0 | 10.0 | 0.00 | 0.00 | 0.00 | 41 | 1017.0 |
| 20260506212621 | 72 | 310 | 2.0 | 7.0 | 0.00 | 0.00 | 0.00 | 41 | 1017.1 |
| 20260506212118 | 72 | 296 | 1.0 | 6.0 | 0.00 | 0.00 | 0.00 | 41 | 1017.1 |
| 20260506211520 | 71 | 25 | 0.0 | 6.0 | 0.00 | 0.00 | 0.00 | 41 | 1017.3 |
| 20260506211018 | 72 | 336 | 1.0 | 6.0 | 0.00 | 0.00 | 0.00 | 41 | 1017.3 |
| 20260506210518 | 72 | 336 | 0.0 | 3.0 | 0.00 | 0.00 | 0.00 | 40 | 1017.5 |
| 20260506210024 | 70 | 359 | 0.0 | 5.0 | 0.00 | 0.00 | 0.00 | 43 | 1017.4 |
| 20260506205518 | 70 | 350 | 1.0 | 8.0 | 0.00 | 0.00 | 0.00 | 42 | 1017.5 |
| 20260506205018 | 71 | 359 | 2.0 | 9.0 | 0.00 | 0.00 | 0.00 | 40 | 1017.5 |
| 20260506204519 | 70 | 191 | 0.0 | 9.0 | 0.00 | 0.00 | 0.00 | 43 | 1017.5 |
| 20260506204022 | 70 | 316 | 0.0 | 4.0 | 0.00 | 0.00 | 0.00 | 43 | 1017.6 |
| 20260506203520 | 69 | 297 | 1.0 | 7.0 | 0.00 | 0.00 | 0.00 | 43 | 1017.7 |
| 20260506203019 | 69 | 289 | 0.0 | 8.0 | 0.00 | 0.00 | 0.00 | 43 | 1017.8 |
| 20260506202627 | 69 | 330 | 0.0 | 8.0 | 0.00 | 0.00 | 0.00 | 44 | 1017.8 |
| 20260506202018 | 69 | 321 | 1.0 | 9.0 | 0.00 | 0.00 | 0.00 | 45 | 1017.9 |
| 20260506201528 | 70 | 321 | 1.0 | 9.0 | 0.00 | 0.00 | 0.00 | 43 | 1017.9 |
| 20260506201019 | 69 | 33 | 1.0 | 7.0 | 0.00 | 0.00 | 0.00 | 45 | 1018.0 |
| 20260506200518 | 68 | 195 | 0.0 | 7.0 | 0.00 | 0.00 | 0.00 | 46 | 1017.9 |
| 20260506200018 | 67 | 314 | 0.0 | 7.0 | 0.00 | 0.00 | 0.00 | 47 | 1018.2 |
| 20260506195519 | 67 | 295 | 1.0 | 7.0 | 0.00 | 0.00 | 0.00 | 48 | 1018.1 |
| 20260506195018 | 67 | 308 | 0.0 | 10.0 | 0.00 | 0.00 | 0.00 | 46 | 1018.2 |
| 20260506194518 | 67 | 12 | 1.0 | 10.0 | 0.00 | 0.00 | 0.00 | 48 | 1018.1 |
| 20260506194022 | 67 | 305 | 2.0 | 9.0 | 0.00 | 0.00 | 0.00 | 47 | 1018.2 |
| 20260506193518 | 67 | 306 | 3.0 | 7.0 | 0.00 | 0.00 | 0.00 | 46 | 1018.2 |
| 20260506193024 | 67 | 359 | 2.0 | 5.0 | 0.00 | 0.00 | 0.00 | 46 | 1018.3 |
| 20260506192518 | 67 | 314 | 0.0 | 4.0 | 0.00 | 0.00 | 0.00 | 47 | 1018.4 |
| 20260506192021 | 66 | 315 | 0.0 | 6.0 | 0.00 | 0.00 | 0.00 | 48 | 1018.6 |
| 20260506191519 | 66 | 290 | 0.0 | 10.0 | 0.00 | 0.00 | 0.00 | 49 | 1018.7 |
| 20260506191018 | 65 | 339 | 3.0 | 12.0 | 0.00 | 0.00 | 0.00 | 51 | 1018.7 |
| 20260506190519 | 66 | 23 | 2.0 | 12.0 | 0.00 | 0.00 | 0.00 | 50 | 1018.8 |
| 20260506190026 | 65 | 318 | 1.0 | 10.0 | 0.00 | 0.00 | 0.00 | 52 | 1018.8 |
| 20260506185519 | 65 | 289 | 1.0 | 12.0 | 0.00 | 0.00 | 0.00 | 50 | 1018.8 |
| 20260506185018 | 66 | 349 | 4.0 | 12.0 | 0.00 | 0.00 | 0.00 | 49 | 1018.8 |
| 20260506184521 | 65 | 293 | 0.0 | 7.0 | 0.00 | 0.00 | 0.00 | 51 | 1018.9 |
| 20260506184018 | 65 | 310 | 1.0 | 8.0 | 0.00 | 0.00 | 0.00 | 53 | 1018.9 |
| 20260506183520 | 64 | 345 | 2.0 | 8.0 | 0.00 | 0.00 | 0.00 | 53 | 1018.9 |
| 20260506183018 | 64 | 318 | 1.0 | 8.0 | 0.00 | 0.00 | 0.00 | 53 | 1018.9 |
| 20260506182518 | 64 | 346 | 5.0 | 9.0 | 0.00 | 0.00 | 0.00 | 53 | 1018.9 |
| 20260506182020 | 64 | 38 | 1.0 | 8.0 | 0.00 | 0.00 | 0.00 | 54 | 1018.9 |
| 20260506181519 | 63 | 312 | 1.0 | 10.0 | 0.00 | 0.00 | 0.00 | 57 | 1018.9 |
| 20260506181018 | 63 | 347 | 3.0 | 10.0 | 0.00 | 0.00 | 0.00 | 55 | 1018.9 |
| 20260506180518 | 63 | 303 | 1.0 | 7.0 | 0.00 | 0.00 | 0.00 | 55 | 1018.8 |
| 20260506180024 | 63 | 47 | 0.0 | 8.0 | 0.00 | 0.00 | 0.00 | 55 | 1018.9 |
| 20260506175518 | 63 | 10 | 1.0 | 10.0 | 0.00 | 0.00 | 0.00 | 56 | 1018.8 |
| 20260506175018 | 62 | 15 | 1.0 | 10.0 | 0.00 | 0.00 | 0.00 | 58 | 1018.9 |
| 20260506174619 | 62 | 343 | 2.0 | 10.0 | 0.00 | 0.00 | 0.00 | 57 | 1018.8 |
| 20260506174019 | 62 | 359 | 4.0 | 7.0 | 0.00 | 0.00 | 0.00 | 58 | 1018.9 |
| 20260506173519 | 63 | 45 | 2.0 | 6.0 | 0.00 | 0.00 | 0.00 | 57 | 1018.9 |
| 20260506173018 | 62 | 350 | 0.0 | 6.0 | 0.00 | 0.00 | 0.00 | 58 | 1019.0 |
| 20260506172518 | 62 | 12 | 0.0 | 7.0 | 0.00 | 0.00 | 0.00 | 58 | 1019.1 |
| 20260506172018 | 61 | 39 | 4.0 | 7.0 | 0.00 | 0.00 | 0.00 | 60 | 1019.0 |
| 20260506171533 | 61 | 40 | 0.0 | 6.0 | 0.00 | 0.00 | 0.00 | 60 | 1019.1 |
| 20260506171018 | 61 | 359 | 2.0 | 6.0 | 0.00 | 0.00 | 0.00 | 61 | 1019.0 |
| 20260506170522 | 60 | 14 | 1.0 | 6.0 | 0.00 | 0.00 | 0.00 | 61 | 1019.0 |
| 20260506170020 | 60 | 343 | 0.0 | 8.0 | 0.00 | 0.00 | 0.00 | 64 | 1019.0 |
| 20260506165018 | 60 | 334 | 1.0 | 6.0 | 0.00 | 0.00 | 0.00 | 65 | 1019.1 |
| 20260506164523 | 60 | 359 | 2.0 | 6.0 | 0.00 | 0.00 | 0.00 | 62 | 1019.1 |
| 20260506164019 | 60 | 245 | 0.0 | 2.0 | 0.00 | 0.00 | 0.00 | 62 | 1019.1 |
| 20260506163518 | 59 | 245 | 0.0 | 0.0 | 0.00 | 0.00 | 0.00 | 65 | 1019.1 |
| 20260506163019 | 59 | 245 | 0.0 | 0.0 | 0.00 | 0.00 | 0.00 | 67 | 1019.2 |
| 20260506162518 | 57 | 245 | 0.0 | 0.0 | 0.00 | 0.00 | 0.00 | 69 | 1019.3 |
| 20260506162019 | 56 | 245 | 0.0 | 0.0 | 0.00 | 0.00 | 0.00 | 70 | 1019.2 |
| 20260506161519 | 55 | 245 | 0.0 | 0.0 | 0.00 | 0.00 | 0.00 | 72 | 1019.1 |
| 20260506161018 | 55 | 245 | 0.0 | 0.0 | 0.00 | 0.00 | 0.00 | 74 | 1019.3 |
| 20260506160520 | 54 | 245 | 0.0 | 0.0 | 0.00 | 0.00 | 0.00 | 75 | 1019.4 |
| 20260506160021 | 53 | 245 | 0.0 | 3.0 | 0.00 | 0.00 | 0.00 | 77 | 1019.4 |
| 20260506155519 | 53 | 245 | 0.0 | 4.0 | 0.00 | 0.00 | 0.00 | 79 | 1019.4 |
| 20260506155019 | 52 | 245 | 0.0 | 5.0 | 0.00 | 0.00 | 0.00 | 80 | 1019.5 |
| 20260506154520 | 52 | 245 | 0.0 | 4.0 | 0.00 | 0.00 | 0.00 | 85 | 1019.5 |
| 20260506154019 | 51 | 245 | 0.0 | 0.0 | 0.00 | 0.00 | 0.00 | 87 | 1019.6 |
| 20260506153519 | 51 | 245 | 0.0 | 0.0 | 0.00 | 0.00 | 0.00 | 89 | 1019.7 |
| 20260506130022 | 41 | 245 | 0.0 | 0.0 | 0.00 | 0.00 | 0.00 | 92 | 1018.9 |
| 20260506125518 | 41 | 245 | 0.0 | 0.0 | 0.00 | 0.00 | 0.00 | 92 | 1018.7 |
| 20260506125018 | 41 | 245 | 0.0 | 0.0 | 0.00 | 0.00 | 0.00 | 92 | 1018.7 |
| 20260506124521 | 41 | 245 | 0.0 | 0.0 | 0.00 | 0.00 | 0.00 | 92 | 1018.7 |
| 20260506124018 | 41 | 245 | 0.0 | 0.0 | 0.00 | 0.00 | 0.00 | 92 | 1018.7 |
| 20260506123517 | 41 | 245 | 0.0 | 0.0 | 0.00 | 0.00 | 0.00 | 91 | 1018.6 |
| 20260506123018 | 41 | 245 | 0.0 | 0.0 | 0.00 | 0.00 | 0.00 | 91 | 1018.6 |
| 20260506122518 | 41 | 245 | 0.0 | 0.0 | 0.00 | 0.00 | 0.00 | 91 | 1018.6 |
| 20260506122021 | 41 | 245 | 0.0 | 0.0 | 0.00 | 0.00 | 0.00 | 91 | 1018.5 |
| 20260506121518 | 41 | 245 | 0.0 | 0.0 | 0.00 | 0.00 | 0.00 | 91 | 1018.5 |
| 20260506121017 | 42 | 245 | 0.0 | 0.0 | 0.00 | 0.00 | 0.00 | 92 | 1018.5 |
| 20260506120522 | 41 | 245 | 0.0 | 0.0 | 0.00 | 0.00 | 0.00 | 92 | 1018.5 |
| 20260506120020 | 41 | 245 | 0.0 | 0.0 | 0.00 | 0.00 | 0.00 | 91 | 1018.5 |
| 20260506115518 | 41 | 245 | 0.0 | 0.0 | 0.00 | 0.00 | 0.00 | 91 | 1018.5 |
| 20260506115017 | 42 | 245 | 0.0 | 0.0 | 0.00 | 0.00 | 0.00 | 92 | 1018.5 |
| 20260506114532 | 41 | 245 | 0.0 | 0.0 | 0.00 | 0.00 | 0.00 | 91 | 1018.5 |
| 20260506114017 | 41 | 245 | 0.0 | 0.0 | 0.00 | 0.00 | 0.00 | 91 | 1018.4 |
| 20260506113521 | 41 | 245 | 0.0 | 0.0 | 0.00 | 0.00 | 0.00 | 91 | 1018.4 |
| 20260506113020 | 42 | 245 | 0.0 | 0.0 | 0.00 | 0.00 | 0.00 | 91 | 1018.3 |
| 20260506112521 | 42 | 245 | 0.0 | 0.0 | 0.00 | 0.00 | 0.00 | 91 | 1018.3 |
| 20260506112018 | 42 | 245 | 0.0 | 0.0 | 0.00 | 0.00 | 0.00 | 92 | 1018.2 |
| 20260506111517 | 42 | 245 | 0.0 | 0.0 | 0.00 | 0.00 | 0.00 | 92 | 1018.1 |
| 20260506111018 | 42 | 245 | 0.0 | 0.0 | 0.00 | 0.00 | 0.00 | 91 | 1018.0 |
| 20260506110521 | 42 | 245 | 0.0 | 0.0 | 0.00 | 0.00 | 0.00 | 91 | 1018.1 |
| 20260506110021 | 42 | 245 | 0.0 | 0.0 | 0.00 | 0.00 | 0.00 | 91 | 1018.1 |
| 20260506105524 | 42 | 245 | 0.0 | 0.0 | 0.00 | 0.00 | 0.00 | 91 | 1018.0 |
| 20260506105018 | 42 | 245 | 0.0 | 0.0 | 0.00 | 0.00 | 0.00 | 91 | 1017.9 |
| 20260506104517 | 42 | 245 | 0.0 | 0.0 | 0.00 | 0.00 | 0.00 | 91 | 1017.9 |
| 20260506104018 | 42 | 245 | 0.0 | 0.0 | 0.00 | 0.00 | 0.00 | 91 | 1017.8 |
| 20260506103521 | 42 | 245 | 0.0 | 0.0 | 0.00 | 0.00 | 0.00 | 91 | 1017.7 |
| 20260506103119 | 42 | 245 | 0.0 | 0.0 | 0.00 | 0.00 | 0.00 | 91 | 1017.7 |
| 20260506102519 | 42 | 245 | 0.0 | 0.0 | 0.00 | 0.00 | 0.00 | 91 | 1017.6 |
| 20260506102017 | 41 | 245 | 0.0 | 0.0 | 0.00 | 0.00 | 0.00 | 91 | 1017.6 |
| 20260506101519 | 42 | 245 | 0.0 | 0.0 | 0.00 | 0.00 | 0.00 | 91 | 1017.6 |
| 20260506101017 | 42 | 245 | 0.0 | 0.0 | 0.00 | 0.00 | 0.00 | 91 | 1017.6 |
| 20260506100518 | 42 | 245 | 0.0 | 0.0 | 0.00 | 0.00 | 0.00 | 91 | 1017.7 |
| 20260506100023 | 42 | 245 | 0.0 | 0.0 | 0.00 | 0.00 | 0.00 | 91 | 1017.7 |
| 20260506095518 | 42 | 245 | 0.0 | 0.0 | 0.00 | 0.00 | 0.00 | 91 | 1017.7 |
| 20260506095020 | 41 | 245 | 0.0 | 0.0 | 0.00 | 0.00 | 0.00 | 90 | 1017.7 |
| 20260506094519 | 42 | 245 | 0.0 | 0.0 | 0.00 | 0.00 | 0.00 | 91 | 1017.7 |
| 20260506094018 | 42 | 245 | 0.0 | 0.0 | 0.00 | 0.00 | 0.00 | 91 | 1017.8 |
| 20260506093520 | 42 | 245 | 0.0 | 0.0 | 0.00 | 0.00 | 0.00 | 91 | 1017.8 |
| 20260506093019 | 42 | 245 | 0.0 | 0.0 | 0.00 | 0.00 | 0.00 | 91 | 1017.9 |
| 20260506092524 | 42 | 251 | 0.0 | 0.0 | 0.00 | 0.00 | 0.00 | 91 | 1018.0 |
| 20260506092018 | 41 | 251 | 0.0 | 0.0 | 0.00 | 0.00 | 0.00 | 91 | 1018.1 |
| 20260506091521 | 41 | 251 | 0.0 | 0.0 | 0.00 | 0.00 | 0.00 | 91 | 1018.1 |
| 20260506091018 | 41 | 251 | 0.0 | 0.0 | 0.00 | 0.00 | 0.00 | 91 | 1018.1 |
| 20260506090517 | 41 | 251 | 0.0 | 0.0 | 0.00 | 0.00 | 0.00 | 91 | 1018.1 |
| 20260506090017 | 41 | 251 | 0.0 | 0.0 | 0.00 | 0.00 | 0.00 | 90 | 1018.1 |
| 20260506085517 | 41 | 251 | 0.0 | 0.0 | 0.00 | 0.00 | 0.00 | 90 | 1017.9 |
| 20260506085018 | 41 | 251 | 0.0 | 0.0 | 0.00 | 0.00 | 0.00 | 90 | 1017.9 |
| 20260506084518 | 42 | 251 | 0.0 | 0.0 | 0.00 | 0.00 | 0.00 | 90 | 1017.8 |
| 20260506084019 | 42 | 251 | 0.0 | 0.0 | 0.00 | 0.00 | 0.00 | 90 | 1017.9 |
| 20260506083620 | 42 | 251 | 0.0 | 0.0 | 0.00 | 0.00 | 0.00 | 90 | 1018.0 |
| 20260506083018 | 41 | 251 | 0.0 | 0.0 | 0.00 | 0.00 | 0.00 | 90 | 1018.1 |
| 20260506082517 | 42 | 251 | 0.0 | 0.0 | 0.00 | 0.00 | 0.00 | 89 | 1018.1 |
| 20260506082018 | 42 | 251 | 0.0 | 0.0 | 0.00 | 0.00 | 0.00 | 90 | 1018.1 |
| 20260506081519 | 42 | 251 | 0.0 | 0.0 | 0.00 | 0.00 | 0.00 | 90 | 1018.0 |
| 20260506081019 | 42 | 254 | 0.0 | 0.0 | 0.00 | 0.00 | 0.00 | 90 | 1018.0 |
| 20260506080518 | 42 | 254 | 0.0 | 0.0 | 0.00 | 0.00 | 0.00 | 89 | 1018.0 |
| 20260506073518 | 42 | 254 | 0.0 | 0.0 | 0.00 | 0.00 | 0.00 | 88 | 1017.6 |
| 20260506073018 | 42 | 254 | 0.0 | 0.0 | 0.00 | 0.00 | 0.00 | 88 | 1017.6 |
| 20260506072518 | 43 | 254 | 0.0 | 0.0 | 0.00 | 0.00 | 0.00 | 88 | 1017.4 |
| 20260506072019 | 43 | 254 | 0.0 | 0.0 | 0.00 | 0.00 | 0.00 | 88 | 1017.6 |
| 20260506071518 | 43 | 254 | 0.0 | 0.0 | 0.00 | 0.00 | 0.00 | 88 | 1017.4 |
| 20260506071018 | 43 | 254 | 0.0 | 0.0 | 0.00 | 0.00 | 0.00 | 88 | 1017.4 |
| 20260506070518 | 43 | 254 | 0.0 | 0.0 | 0.00 | 0.00 | 0.00 | 88 | 1017.2 |
| 20260506062019 | 44 | 254 | 0.0 | 0.0 | 0.00 | 0.00 | 0.00 | 87 | 1017.2 |
| 20260506061518 | 45 | 254 | 0.0 | 0.0 | 0.00 | 0.00 | 0.00 | 87 | 1017.1 |
| 20260506061019 | 44 | 254 | 0.0 | 0.0 | 0.00 | 0.00 | 0.00 | 86 | 1017.1 |
| 20260506060518 | 45 | 254 | 0.0 | 0.0 | 0.00 | 0.00 | 0.00 | 86 | 1017.1 |
| 20260506051018 | 46 | 255 | 0.0 | 0.0 | 0.00 | 0.00 | 0.00 | 84 | 1016.7 |
| 20260506050518 | 46 | 255 | 0.0 | 0.0 | 0.00 | 0.00 | 0.00 | 84 | 1016.7 |
| 20260506045018 | 46 | 296 | 0.0 | 0.0 | 0.00 | 0.00 | 0.00 | 82 | 1016.3 |
| 20260506044528 | 46 | 296 | 0.0 | 0.0 | 0.00 | 0.00 | 0.00 | 83 | 1016.3 |
| 20260506044018 | 47 | 296 | 0.0 | 0.0 | 0.00 | 0.00 | 0.00 | 82 | 1016.3 |
| 20260506043519 | 47 | 296 | 0.0 | 0.0 | 0.00 | 0.00 | 0.00 | 82 | 1016.2 |
| 20260506043019 | 47 | 296 | 0.0 | 0.0 | 0.00 | 0.00 | 0.00 | 80 | 1016.1 |
| 20260506042522 | 49 | 297 | 0.0 | 0.0 | 0.00 | 0.00 | 0.00 | 81 | 1016.1 |
| 20260506042019 | 49 | 297 | 0.0 | 0.0 | 0.00 | 0.00 | 0.00 | 80 | 1015.9 |
| 20260506041519 | 49 | 297 | 0.0 | 0.0 | 0.00 | 0.00 | 0.00 | 80 | 1015.9 |
| 20260506041018 | 50 | 297 | 0.0 | 0.0 | 0.00 | 0.00 | 0.00 | 81 | 1015.8 |
| 20260506040518 | 50 | 297 | 0.0 | 0.0 | 0.00 | 0.00 | 0.00 | 81 | 1015.8 |
| 20260506040018 | 50 | 297 | 0.0 | 0.0 | 0.00 | 0.00 | 0.00 | 81 | 1015.7 |
| 20260506035521 | 50 | 297 | 0.0 | 0.0 | 0.00 | 0.00 | 0.00 | 80 | 1015.6 |